NOAA 16 DEB, 41532

Orbit data source: Space-Track

NOAA 16 DEB, 41532 is space debris in SSO originally from a launch on Thu, 21 Sep 2000 UTC launched from the Air Force Western Test Range (AFWTR). Debris objects in space refer to the collection of defunct objects orbiting the Earth. Examples of debris include non-operational satellites, rocket bodies, and fragments generated from explosions, collisions, or faulty payload assembly.

Loading next visibility...
Identifier
41532, 2000-055NG
Orbit
SSO
Country
Flag of USUS
Related business
Manufacturer
Unknown
Mission
Spacecraft
Bus & Motor
Unknown
Mass
Unknown
Launch date (UTC)
2000-09-21 (26 years ago)
Launch vehicle
Unknown
Launch site
Air Force Western Test Range (AFWTR)
Object type
Payload
Rocket body
Debris
Shape & HBR
Unknown shape, 0.1 m
Radar Cross Section
Small (<0.1 m²)

Expand to show TLE details & history
Last TLE update: 18 hours ago

TLE from 18 hours ago
0 NOAA 16 DEB
1 41532U 00055NG  26123.70882757  .00004309  00000-0  15589-2 0  9999
2 41532  98.7361 224.0414 0007932 287.8087  72.2231 14.33980831519922
Epoch: 2026-05-03T17:00Z
TLE epoch observation values (Epoch: 2026-05-03T17:00:42.702Z)
Latitude
-0.00004°
Longitude
107.25499°
Altitude
779.659 km
Speed
7.465 km/s
True Right ascension
14h 56m 09s
True Declination
0° 00' 00"
Sunlit
Object was in full shadow at epoch
Visualization orbit readout
Latitude
Unknown
Longitude
Unknown
Altitude
Unknown
Speed
Unknown
Apparent Right ascension
Unknown
Apparent Declination
Unknown
Sunlit
N/A
Visualization observer readout
Local Sidereal Time
18:49:10
Azimuth
Unknown
Elevation
Unknown
Doppler factor
Unknown
Orbital elements
Apogee altitude
781.271 km
Perigee altitude
769.922 km
Semi-major axis
7,153.734 km
Eccentricity
0.00079
Inclination
98.7361°
RAAN
224.0414°
Arg. of periapsis
287.8087°
True anomaly
72.30968°
Mean anomaly
72.2231°
Eccentric anomaly
72.26639°
Mean motion
3.5871 °/min
Orbital period
100.36 mins
BSTAR
0.0015589
Loading maneuver chart data...
Computing Atmospheric mass density...
Loading historical data...
Loading historical data...
Loading historical data...
Loading historical data...
Loading historical data...
Loading historical data...
Loading historical data...

Documentation

Showing up to 5 results
|